Regional Weather Roundup
Issued by NWS

Home | Current Version | Previous Version | Graphics & Text | Print | Product List | Glossary On
Versions: 1 2 3 4 5 6 7 8 9 10 11 12 13 14 15 16 17 18 19 20 21 22 23 24 25 26 27 28 29 30 31 32 33 34 35 36 37 38 39 40 41 42 43 44 45 46 47 48 49 50
000
ASUS43 KMPX 132010
RWRMN
WEATHER ROUNDUP FOR MINNESOTA
NATIONAL WEATHER SERVICE TWIN CITIES/CHANHASSEN MN
200 PM CST SAT FEB 13 2016


NOTE: "FAIR" INDICATES FEW OR NO CLOUDS BELOW 12,000 FEET WITH NO
SIGNIFICANT WEATHER AND/OR OBSTRUCTIONS TO VISIBILITY. N/A MEANS
CURRENT SKY AND/OR WEATHER CONDITIONS ARE NOT AVAILABLE.

MNZ060>063-068>070-132100-
   Twin Cities Metro

CITY           SKY/WX    TMP DP  RH WIND       PRES   REMARKS
TWIN CITIES    SUNNY      9 -10  42 SE8       30.52F WCI  -3
ST PAUL        SUNNY      9  -6  50 S9        30.55F WCI  -4
CRYSTAL        SUNNY     11  -6  46 SE5       30.50F WCI   3
BLAINE         MOSUNNY   12  -6  44 SE5       30.50F WCI   4
LAKEVILLE      SUNNY      5  -8  56 E6        30.52F WCI  -6
EDEN PRAIRIE   SUNNY     10  -7  46 SE7       30.50F WCI  -1
SOUTH ST PAUL  SUNNY      8 -11  41 SE5       30.53F WCI   0
LAKE ELMO      FAIR      10  -8  44 CALM      30.53F
$$
MNZ001>005-007-008-013>017-022>024-027-028-132100-
   Northwest Minnesota

CITY           SKY/WX    TMP DP  RH WIND       PRES   REMARKS
BEMIDJI        SUNNY      6 -11  47 SE8       30.38F WCI  -7
HALLOCK        CLOUDY     7  -6  56 SE20      30.36F WCI -13
ROSEAU         CLOUDY     3  -8  60 CALM      30.39F
WARROAD        CLOUDY     0  -9  65 NE5       30.40F WCI -10
THIEF RVR FALL SUNNY      5 -15  39 SE12      30.37F WCI -11
CROOKSTON      SUNNY      7  -6  56 S14       30.38F WCI -10
FOSSTON        SUNNY     19   0  42 CALM      30.35F
DETROIT LAKES  SUNNY     10  -4  52 SE14      30.35F WCI  -5
MOORHEAD       CLOUDY    10  -2  56 S18       30.36F WCI  -8
PARK RAPIDS    SUNNY      9 -11  40 SE10      30.37F WCI  -5
MAHNOMEN       FAIR      11  -5  49 SE7       30.35F WCI   0
$$
MNZ006-009>011-018-025>026-132100-
   North Central Minnesota

CITY           SKY/WX    TMP DP  RH WIND       PRES   REMARKS
BAUDETTE       CLOUDY     4 -14  43 S8        30.39F WCI  -9
FLAG ISLAND    CLOUDY    -6 -13  71 S3        30.42F
INTL FALLS     SUNNY      4 -14  43 CALM      30.43F
WASKISH        SUNNY      7  -8  51 CALM      30.40F
LONGVILLE      SUNNY     10 -13  34 S7        30.41F WCI   0
GRAND RAPIDS   SUNNY      5 -11  47 S3        30.42F
CRANE LAKE     SUNNY      3 -17  39 N5        30.47F WCI  -6
ORR            SUNNY      7 -18  30 CALM      30.39F
COOK           SUNNY      3 -17  39 CALM      30.42F
WALKER         FAIR       6 -11  46 E6        30.39F WCI  -5
$$
MNZ012-019>021-037-132100-
   Northeast Minnesota

CITY           SKY/WX    TMP DP  RH WIND       PRES   REMARKS
DULUTH         SUNNY      6 -13  41 W8        30.42F WCI  -7
ELY            SUNNY      5 -15  39 CALM      30.40F
HIBBING        SUNNY      6 -13  41 NE5       30.42F WCI  -3
EVELETH        SUNNY      7 -15  36 CALM      30.44F
DULUTH HARBOR  SUNNY      9 -11  40 S6        30.53F WCI  -1
TWO HARBORS    SUNNY     12  -8  40 CALM      30.43F
SILVER BAY     SUNNY     10  -2  56 S9        30.43F WCI  -2
GRAND MARAIS     N/A      7   1  76 SW10G17   30.50F WCI  -8
G MARAIS ARPRT SUNNY      5 -17  36 CALM      30.35F
$$
MNZ029>031-032-039>041-046>048-054>057-064-132100-
   West Central Minnesota

CITY           SKY/WX    TMP DP  RH WIND       PRES   REMARKS
FERGUS FALLS   MOSUNNY   10  -2  56 S20       30.41F WCI  -8
WHEATON        CLOUDY     9   1  72 SE18      30.39F WCI -10
MORRIS         CLOUDY    10   1  67 MISG      30.37F
ALEXANDRIA     SUNNY      8  -6  52 SE13      30.38F WCI  -8
ELBOW LAKE     FAIR       9  -2  61 SE17      30.37F WCI  -9
WADENA         SUNNY      7  -8  51 SE10      30.38F WCI  -8
GLENWOOD       CLOUDY    10  -2  56 SE12      30.39F WCI  -4
APPLETON       CLOUDY     9  -2  61 SE13      30.40F WCI  -7
BENSON         CLOUDY    12  -2  52 S13G20    30.40F WCI  -3
ORTONVILLE     CLOUDY     7  -2  66 SE16      30.37F WCI -11
MADISON        CLOUDY    10   1  67 SE18      30.39F WCI  -8
WILLMAR        FAIR      12   0  57 SE15      30.43F WCI  -4
$$
MNZ033>034-036-042>043-049>051-058-059-132100-
   Central Minnesota

CITY           SKY/WX    TMP DP  RH WIND       PRES   REMARKS
ST CLOUD       SUNNY      7  -8  50 SE9       30.47F WCI  -7
SAUK CENTRE    FAIR       8  -5  55 SE12      30.42F WCI  -7
PAYNESVILLE    CLOUDY    10  -5  49 SE12G17   30.44F WCI  -5
AITKIN         SUNNY      7 -18  30 S6        30.44F WCI  -3
PINE RIVER     SUNNY      7  -9  47 SE8       30.44F WCI  -6
BRAINERD       SUNNY      5 -11  47 S9        30.44F WCI  -9
STAPLES        SUNNY      7 -11  43 S9        30.40F WCI  -7
LONG PRAIRIE   FAIR       5  -8  56 SE10      30.41F WCI -10
LITTLE FALLS   SUNNY      7  -8  51 SE7       30.45F WCI  -5
LITCHFIELD     SUNNY     10  -2  56 SE10      30.46F WCI  -3
BUFFALO        SUNNY      9 -10  42 SE3       30.51F
MAPLE LAKE     CLOUDY    10  -5  49 SE7       30.49F WCI  -1
$$
MNZ037-044-045-052-053-132100-
   East Central Minnesota

CITY           SKY/WX    TMP DP  RH WIND       PRES   REMARKS
PRINCETON      SUNNY     10  -8  44 SE7       30.49F WCI   0
MORA           SUNNY      9  -9  43 CALM      30.51F
CAMBRIDGE      SUNNY      9  -6  52 CALM      30.48F
RUSH CITY      SUNNY      8 -10  44 SW3       30.52
MOOSE LAKE     SUNNY      9 -13  37 W3        30.47F
HINCKLEY       FAIR       9  -8  47 S3        30.50F
CLOQUET        SUNNY      7 -18  30 CALM      30.43F
MCGREGOR       SUNNY      9 -11  40 CALM      30.46F
$$
MNZ071>073-080-081-089-090-097-098-132100-
   Southwest Minnesota

CITY           SKY/WX    TMP DP  RH WIND       PRES   REMARKS
MONTEVIDEO     CLOUDY     9   0  66 S9        30.44F WCI  -5
GRANITE FALLS  CLOUDY    10   2  72 SE16      30.45F WCI  -8
CANBY          CLOUDY    12   2  64 SE15      30.39F WCI  -4
MARSHALL       CLOUDY     9  -1  64 SE17      30.40F WCI  -9
REDWOOD FALLS  CLOUDY     7  -2  66 SE16      30.46F WCI -11
OLIVIA         CLOUDY    10   0  61 SE12      30.44F WCI  -4
PIPESTONE      CLOUDY     9  -6  52 S16       30.32F WCI  -9
WINDOM         CLOUDY     7   0  72 SE10      30.42F WCI  -8
WORTHINGTON    CLOUDY     5  -2  72 S12       30.39F WCI -11
JACKSON        CLOUDY     9  -2  61 SE10      30.42F WCI  -6
TRACY          CLOUDY     9   1  70 S12       30.40F WCI  -6
SLAYTON        CLOUDY     7   0  74 SE15      30.37F WCI -11
$$
MNZ065>067-074>077-082>085-091>093-132100-
   South Central Minnesota

CITY           SKY/WX    TMP DP  RH WIND       PRES   REMARKS
MANKATO        CLOUDY     7  -4  61 SE10      30.49F WCI  -8
NEW ULM        CLOUDY     7  -6  56 SE10      30.47F WCI  -8
ST JAMES       CLOUDY     9   1  72 SE13      30.48F WCI  -7
FAIRMONT       CLOUDY     9  -2  61 SE13      30.44F WCI  -7
GLENCOE        SUNNY     11  -3  52 SE8       30.48F WCI   0
FARIBAULT      SUNNY      9  -6  52 S5        30.51F WCI   0
OWATONNA       CLOUDY     9  -8  47 CALM      30.49F
WASECA         CLOUDY    10   0  61 SE6       30.51F WCI   1
ALBERT LEA     CLOUDY     7  -6  56 SE7       30.49F WCI  -5
$$
MNZ078>079-086>088-094>096-132100-
   Southeast Minnesota

CITY           SKY/WX    TMP DP  RH WIND       PRES   REMARKS
ROCHESTER      SUNNY      4  -8  57 S3        30.49F
RED WING       SUNNY      9 -11  40 SE1       30.55
STANTON        SUNNY      8  -7  50 CALM      30.51F
DODGE CENTER   SUNNY     10  -8  44 SE6       30.48F WCI   1
WINONA         SUNNY     12  -8  40 SE3       30.57F
AUSTIN         CLOUDY     3  -6  66 SE5       30.50F WCI  -6
PRESTON        SUNNY      7 -12  42 CALM      30.51F
$$
ABBREVIATIONS USED IN REMARKS
   TC - TEMPERATURES IN CELSIUS
  WCI - WIND CHILL INDEX
   HX - HEAT INDEX
  VSB - VISIBILITY
$$



USA.gov is the U.S. government's official web portal to all federal, state and local government web resources and services.